[[{"header":{"parameterUnit":"m.s-1","parameterCategory":1,"la1":30.2991,"la2":30.254,"lo1":-89.0895,"lo2":-89.0444,"dy":0.0017,"dx":0.0017,"nx":28,"ny":28,"refTime":"2025-08-19T09:00:00:Z","depth":0,"parameterNumber":2,"parameterNumberName":"U-component_of_WINDS"},"data":[0,0,0,0,0,0,0,0,0,0,0,0,0,0,0,0,0,0,0,0,0,0,0,0,0,0,0,0,0,0,0,0,0,0,0,0,0,0,0,0,0,0,0,0,0,0,0,0,0,0,0,0,0,0,0,0,0,0,-0.9414,-0.9415,0,-0.9452,-0.9452,-0.9452,-0.9427,-0.9426,-0.9425,-0.9424,-0.9463,-0.9465,-0.9467,0,0,0,0,0,0,0,0,0,0,0,0,0,-0.9322,-0.9324,-0.9414,-0.9415,-0.9415,-0.9451,-0.9452,-0.9452,-0.9427,-0.9426,-0.9424,-0.9423,-0.9462,-0.9465,-0.9467,0,0,0,0,0,0,0,0,0,0,0,0,0,-0.9361,-0.9325,-0.9414,-0.9407,-0.9407,-0.9451,-0.9452,-0.9453,-0.9428,-0.9426,-0.9424,-0.9423,-0.9461,-0.9465,-0.9468,-0.9522,0,0,-0.9477,-0.9479,0,0,0,0,0,0,0,0,-0.9359,-0.9364,-0.9407,-0.9407,-0.9407,-0.9433,-0.9434,-0.9476,-0.9428,-0.942,-0.9424,-0.9422,-0.9454,-0.9458,-0.9469,-0.9524,-0.9525,-0.9478,-0.948,-0.9481,-0.9482,0,0,0,0,0,0,0,-0.9356,-0.9363,-0.9429,-0.9408,-0.9408,-0.9402,-0.9406,-0.9442,-0.9446,-0.942,-0.9419,-0.9423,-0.9454,-0.9466,-0.947,-0.9526,-0.9478,-0.948,-0.9482,-0.9484,-0.9627,-0.9629,0,0,0,0,0,0,-0.9354,-0.9361,-0.9428,-0.943,-0.9378,-0.9405,-0.9409,-0.9426,-0.9446,-0.9447,-0.9425,-0.9422,-0.9461,-0.9466,-0.9471,-0.9536,-0.9481,-0.9484,-0.9486,-0.9625,-0.9628,-0.963,0,0,0,0,0,0,-0.9352,-0.936,-0.9426,-0.9395,-0.9403,-0.9409,-0.9428,-0.9428,-0.944,-0.9449,-0.945,-0.9436,-0.946,-0.9466,-0.9509,-0.9537,-0.9485,-0.9488,-0.9623,-0.9626,-0.9629,-0.9666,0,0,0,0,0,0,-0.935,-0.936,-0.938,-0.9396,-0.9405,-0.9464,-0.943,-0.943,-0.9445,-0.9442,-0.946,-0.9461,-0.9459,-0.9505,-0.9513,-0.954,-0.9491,-0.9621,-0.9625,-0.9628,-0.9663,-0.967,-0.9676,0,0,0,0,0,-0.9346,-0.9389,-0.9381,-0.939,-0.943,-0.9466,-0.9471,-0.9467,-0.9448,-0.9468,-0.9474,-0.9461,-0.9533,-0.9509,-0.9518,-0.9547,-0.9619,-0.9623,-0.9628,-0.9659,-0.9669,-0.9676,0,0,0,0,0,0,-0.9377,-0.9391,-0.9382,-0.9432,-0.9448,-0.9461,-0.9487,-0.9477,-0.9499,-0.9495,-0.949,-0.9495,-0.954,-0.9548,-0.9522,-0.9601,-0.9573,-0.9579,-0.9594,-0.9603,-0.9609,-0.9607,-0.9493,0,0,0,0,0,-0.939,-0.9417,-0.9428,-0.947,-0.9479,-0.9482,-0.9497,-0.9493,-0.9509,-0.9516,-0.9525,-0.9542,-0.9568,-0.9586,-0.9611,-0.9663,-0.9667,-0.9688,-0.9695,-0.97,-0.9706,-0.9735,-0.9744,-0.9644,-0.9644,-0.9644,0,0,-0.9416,-0.9427,-0.9445,-0.9477,-0.9489,-0.9517,-0.9488,-0.9519,-0.954,-0.9521,-0.9562,-0.9569,-0.9588,-0.9636,-0.9658,-0.9644,-0.9734,-0.9706,-0.971,-0.9713,-0.974,-0.975,-0.9758,-0.9647,-0.9646,-0.9646,0,0,-0.9479,-0.9489,-0.9526,-0.9539,-0.9557,-0.9558,-0.9567,-0.9583,-0.9587,-0.9628,-0.9614,-0.9639,-0.9685,-0.9698,-0.9711,-0.9779,-0.9767,-0.9787,-0.9824,-0.9852,-0.986,-0.9867,-0.9891,-0.99,-0.9793,-0.9793,-0.9793,0,-0.9509,-0.9551,-0.9546,-0.9579,-0.9594,-0.9577,-0.9614,-0.9627,-0.9652,-0.9663,-0.9647,-0.9704,-0.9715,-0.9766,-0.9783,-0.9794,-0.9804,-0.9785,-0.9859,-0.9866,-0.9872,-0.9896,-0.9905,-0.9795,-0.9795,-0.9795,-0.9794,0,-0.9588,-0.9618,-0.9645,-0.967,-0.9688,-0.9722,-0.9723,-0.9742,-0.9736,-0.974,-0.9782,-0.9795,-0.9822,-0.9833,-0.9828,-0.9884,-0.9875,-0.9859,-0.9831,-0.9884,-0.9906,-0.9915,-0.9798,-0.9798,-0.9797,-0.9796,0,0,-0.9672,-0.9693,-0.9703,-0.9714,-0.9733,-0.9756,-0.979,-0.9816,-0.9833,-0.9851,-0.988,-0.9919,-0.9904,-0.9919,-0.9915,-0.994,-0.9993,-0.9921,-0.9921,-0.9934,-1.0056,-1.0068,-1.0078,-0.9985,-0.9987,-0.9988,-1.0054,0,-0.9736,-0.9795,-0.9791,-0.9847,-0.9874,-0.9859,-0.9889,-0.9904,-0.9908,-0.9932,-0.9937,-0.9964,-0.9943,-0.9952,-0.9975,-0.9981,-1.0017,-0.9976,-1.0012,-1.0014,-1.0009,-1.009,-1.0103,-1.0165,-1.0063,-1.0064,-1.0065,0,-0.9818,-0.9839,-0.9898,-0.9912,-0.9924,-0.995,-0.9974,-0.9997,-1.0014,-1.0015,-1.0032,-1.0024,-1.0059,-1.003,-1.0078,-1.005,-1.0065,-1.007,-1.0072,-1.0076,-1.0043,-1.0096,-1.0184,-1.0194,-1.0079,-1.0078,-1.0077,0,-0.9874,-0.9916,-0.9957,-0.9967,-0.9985,-1.0004,-1.0013,-1.0028,-1.0044,-1.0065,-1.0075,-1.01,-1.0114,-1.0133,-1.0133,-1.0111,-1.0182,-1.0152,-1.0184,-1.0184,-1.02,-1.0199,-1.0292,-1.0209,-1.0208,-1.0208,-1.0208,0,-0.9946,-0.9983,-0.9982,-1.0007,-1.0048,-1.0043,-1.0084,-1.009,-1.0104,-1.013,-1.0118,-1.0143,-1.014,-1.0165,-1.0165,-1.0205,-1.0211,-1.0214,-1.0213,-1.0215,-1.0215,-1.0225,-1.0221,-1.0211,-1.021,-1.021,-1.0209,0,-1.0016,-1.0017,-1.006,-1.0073,-1.0077,-1.0107,-1.0118,-1.0142,-1.0145,-1.0179,-1.0186,-1.0191,-1.022,-1.0221,-1.0255,-1.0255,-1.0304,-1.0298,-1.0298,-1.0297,-1.033,-1.0327,-1.0433,-1.0447,-1.0353,-1.0354,-1.0355,0,-1.0062,-1.009,-1.0106,-1.0122,-1.0132,-1.0159,-1.0175,-1.0171,-1.0189,-1.021,-1.0231,-1.0259,-1.0281,-1.0329,-1.0336,-1.0361,-1.0357,-1.0392,-1.036,-1.0362,-1.0358,-1.0356,-1.0359,-1.0398,-1.0399,-1.04,-1.0401,0,-1.0144,-1.0143,-1.0167,-1.0191,-1.021,-1.0229,-1.0246,-1.0261,-1.0259,-1.0279,-1.0309,-1.0326,-1.036,-1.0388,-1.0413,-1.0422,-1.0412,-1.0411,-1.042,-1.0422,-1.0421,-1.0423,-1.0316,-1.0408,-1.0408,-1.0407,-1.0407,-1.0406,-1.0204,-1.0228,-1.0243,-1.027,-1.0282,-1.0299,-1.0322,-1.0327,-1.0352,-1.0379,-1.0375,-1.0408,-1.0424,-1.0457,-1.0468,-1.0494,-1.0481,-1.0494,-1.0498,-1.0501,-1.0505,-1.0416,-1.0498,-1.0498,-1.0498,-1.0497,-1.0497,0,-1.0286,-1.0295,-1.0319,-1.0344,-1.0365,-1.0352,-1.0371,-1.0389,-1.0418,-1.0434,-1.0456,-1.049,-1.0517,-1.0526,-1.0552,-1.0571,-1.0567,-1.0578,-1.0577,-1.0579,-1.0514,-1.0504,-1.0581,-1.0581,-1.0581,-1.0581,-1.0581,-1.0581,-1.0331,-1.0371,-1.0372,-1.0418,-1.0426,-1.0458,-1.047,-1.0485,-1.0498,-1.0536,-1.0558,-1.0564,-1.0577,-1.0604,-1.0628,-1.063,-1.0641,-1.0654,-1.0654,-1.0592,-1.0584,-1.0576,-1.0567,-1.0656,-1.0656,-1.0718,-1.0718,-1.0719]},{"header":{"parameterUnit":"m.s-1","parameterCategory":1,"la1":30.2991,"la2":30.254,"lo1":-89.0895,"lo2":-89.0444,"dy":0.0017,"dx":0.0017,"nx":28,"ny":28,"refTime":"2025-08-19T09:00:00:Z","depth":0,"parameterNumber":3,"parameterNumberName":"V-component_of_WINDS"},"data":[0,0,0,0,0,0,0,0,0,0,0,0,0,0,0,0,0,0,0,0,0,0,0,0,0,0,0,0,0,0,0,0,0,0,0,0,0,0,0,0,0,0,0,0,0,0,0,0,0,0,0,0,0,0,0,0,0,0,0.8211,0.821,0,0.8147,0.8147,0.8146,0.811,0.8109,0.8109,0.8109,0.8039,0.8038,0.8036,0,0,0,0,0,0,0,0,0,0,0,0,0,0.8296,0.8295,0.8211,0.821,0.821,0.8148,0.8147,0.8146,0.811,0.8109,0.8109,0.8109,0.804,0.8038,0.8036,0,0,0,0,0,0,0,0,0,0,0,0,0,0.8249,0.8295,0.8211,0.8184,0.8181,0.8148,0.8147,0.8146,0.811,0.8109,0.8109,0.8109,0.8041,0.8038,0.8035,0.8023,0,0,0.8027,0.8026,0,0,0,0,0,0,0,0,0.8251,0.8246,0.8189,0.8186,0.8182,0.8136,0.8151,0.8104,0.811,0.8137,0.8109,0.8109,0.8071,0.8066,0.8055,0.8019,0.8016,0.8027,0.8026,0.8024,0.8024,0,0,0,0,0,0,0,0.8255,0.8248,0.8186,0.8188,0.8184,0.8173,0.8167,0.8142,0.8106,0.8134,0.8131,0.8125,0.807,0.8057,0.8053,0.8015,0.8027,0.8025,0.8023,0.8022,0.7965,0.7965,0,0,0,0,0,0,0.8263,0.8251,0.8188,0.8184,0.8217,0.8172,0.8164,0.8151,0.8106,0.8099,0.8125,0.8123,0.8062,0.8056,0.805,0.8031,0.8024,0.8022,0.802,0.7965,0.7965,0.7965,0,0,0,0,0,0,0.8265,0.8258,0.819,0.8217,0.8207,0.8171,0.8156,0.815,0.8138,0.8099,0.8092,0.8119,0.8061,0.8054,0.803,0.8028,0.8021,0.8018,0.7965,0.7965,0.7965,0.7995,0,0,0,0,0,0,0.8268,0.8259,0.8255,0.8217,0.8206,0.8173,0.8156,0.8149,0.8134,0.8131,0.8092,0.8085,0.8061,0.8034,0.8027,0.8025,0.8016,0.7965,0.7965,0.7965,0.7994,0.7996,0.7998,0,0,0,0,0,0.8271,0.8265,0.8255,0.8247,0.8201,0.8173,0.8167,0.814,0.8134,0.8129,0.8104,0.8086,0.803,0.8032,0.8024,0.8021,0.7965,0.7965,0.7965,0.7993,0.7995,0.7998,0,0,0,0,0,0,0.8302,0.8259,0.8248,0.823,0.8205,0.8167,0.816,0.8144,0.812,0.8118,0.8085,0.8076,0.8055,0.8035,0.8038,0.8005,0.7995,0.7994,0.8019,0.8021,0.8023,0.8028,0.8014,0,0,0,0,0,0.8307,0.829,0.8253,0.824,0.8229,0.8197,0.8183,0.8165,0.8138,0.8127,0.81,0.8073,0.8049,0.8034,0.801,0.7991,0.7981,0.7984,0.7986,0.7988,0.7987,0.7974,0.7975,0.7966,0.7966,0.7966,0,0,0.8317,0.8291,0.8282,0.8246,0.8225,0.8206,0.8188,0.8169,0.8154,0.8124,0.81,0.8079,0.8046,0.8025,0.8014,0.8008,0.7988,0.7988,0.799,0.7988,0.7974,0.7975,0.7976,0.7966,0.7966,0.7966,0,0,0.8325,0.8304,0.8291,0.8271,0.824,0.8218,0.8215,0.8179,0.8165,0.814,0.8117,0.8098,0.8058,0.8035,0.8019,0.8018,0.8,0.8011,0.8021,0.8008,0.8009,0.801,0.8008,0.8008,0.801,0.801,0.801,0,0.834,0.8312,0.8286,0.8268,0.8252,0.8226,0.8211,0.8192,0.8154,0.8143,0.8137,0.8086,0.8062,0.8034,0.8034,0.8022,0.8016,0.8015,0.8012,0.8012,0.8012,0.801,0.801,0.8011,0.8011,0.8011,0.8011,0,0.8332,0.8313,0.8306,0.8272,0.8255,0.8239,0.8209,0.8195,0.8178,0.8157,0.8131,0.8102,0.8071,0.8063,0.8046,0.8033,0.803,0.8018,0.8007,0.8015,0.8012,0.8011,0.8013,0.8013,0.8012,0.8012,0,0,0.8358,0.8309,0.8307,0.8291,0.8254,0.8238,0.822,0.8192,0.818,0.8154,0.8137,0.8104,0.8093,0.8074,0.8054,0.8044,0.8044,0.8033,0.8032,0.8035,0.8025,0.8034,0.8034,0.8032,0.8032,0.8032,0.8028,0,0.836,0.8328,0.8304,0.8281,0.8262,0.8236,0.822,0.8195,0.8175,0.8154,0.8131,0.8107,0.8095,0.8084,0.8072,0.8046,0.8041,0.8046,0.8014,0.8014,0.8023,0.8033,0.8042,0.8039,0.8027,0.8027,0.8027,0,0.8358,0.8335,0.8311,0.8276,0.8267,0.8253,0.8224,0.8206,0.8176,0.8162,0.8141,0.8121,0.8099,0.8091,0.8059,0.8063,0.8049,0.8034,0.8033,0.8028,0.802,0.8027,0.8038,0.8038,0.8025,0.8025,0.8025,0,0.8378,0.8341,0.8321,0.8308,0.8267,0.8258,0.824,0.821,0.8195,0.8169,0.8158,0.813,0.8114,0.8091,0.8063,0.806,0.8034,0.8024,0.802,0.8021,0.8015,0.8016,0.8023,0.8007,0.8007,0.8007,0.8007,0,0.8383,0.8368,0.833,0.8317,0.83,0.8271,0.8254,0.8234,0.8208,0.819,0.8165,0.8149,0.8113,0.8091,0.8069,0.8046,0.8039,0.8025,0.8019,0.8027,0.8029,0.8016,0.8016,0.8007,0.8007,0.8007,0.8007,0,0.8402,0.8376,0.8352,0.8316,0.8306,0.8295,0.8262,0.8248,0.8227,0.8204,0.8197,0.8162,0.8136,0.8106,0.8069,0.8053,0.8031,0.8023,0.8042,0.8038,0.8036,0.8036,0.8035,0.8033,0.802,0.802,0.802,0,0.8406,0.8395,0.8357,0.8344,0.8327,0.8307,0.829,0.8261,0.8245,0.8211,0.8201,0.8173,0.8148,0.8107,0.8077,0.8048,0.8039,0.804,0.8034,0.8042,0.8037,0.8038,0.8036,0.8042,0.8042,0.8042,0.8042,0,0.8416,0.8404,0.8382,0.8356,0.8338,0.8315,0.8292,0.8282,0.8248,0.8231,0.8204,0.8186,0.8148,0.812,0.8088,0.8067,0.8048,0.8045,0.8042,0.805,0.8061,0.8054,0.8046,0.8045,0.8044,0.8044,0.8044,0.8044,0.8427,0.8416,0.8387,0.8364,0.8343,0.8322,0.8307,0.8284,0.8262,0.823,0.8214,0.8187,0.8156,0.8111,0.8091,0.8069,0.8063,0.8059,0.8058,0.8058,0.8059,0.8065,0.8063,0.8063,0.8063,0.8063,0.8062,0,0.8435,0.8416,0.8395,0.8363,0.8344,0.833,0.8303,0.8288,0.8265,0.8239,0.8216,0.8185,0.8157,0.8126,0.8096,0.8084,0.8074,0.8077,0.8077,0.8072,0.8067,0.8072,0.8085,0.8085,0.8085,0.8085,0.8085,0.8085,0.8437,0.8417,0.8401,0.8369,0.8349,0.8324,0.8309,0.8289,0.8268,0.8235,0.8212,0.8192,0.8163,0.8131,0.8105,0.8096,0.8085,0.809,0.8079,0.8074,0.8073,0.8071,0.8075,0.8088,0.8088,0.8085,0.8085,0.8085]}]]